N3HBJ Weather Reports


time (UTC)temp
F
wind
direction
speed
knots
gust
knots
rain 1hr
in
rain 24hr
in
rain mn
in
humidity
%
barometer
mb
20260505130225 68 51 5.2 14.8 0.00 0.00 0.00 55 1009.0
20260505124724 67 137 4.3 12.2 0.00 0.00 0.00 56 1009.1
20260505124227 67 79 3.5 11.3 0.00 0.00 0.00 58 1009.2
20260505123726 67 165 2.6 9.6 0.00 0.00 0.00 57 1009.1
20260505123227 67 98 2.6 9.6 0.00 0.00 0.00 56 1009.1
20260505122724 67 137 2.6 9.6 0.00 0.00 0.00 58 1009.1
20260505122224 66 86 3.5 9.6 0.00 0.00 0.00 58 1009.2
20260505121725 66 111 2.6 11.3 0.00 0.00 0.00 57 1009.2
20260505121222 66 135 3.5 11.3 0.00 0.00 0.00 58 1009.3
20260505120725 66 110 5.2 13.9 0.00 0.00 0.00 59 1009.2
20260505120222 65 145 4.3 13.9 0.00 0.00 0.00 58 1009.4
20260505115724 65 79 2.6 7.8 0.00 0.00 0.00 60 1009.4
20260505115222 65 80 2.6 12.2 0.00 0.00 0.00 59 1009.4
20260505114721 64 123 3.5 12.2 0.00 0.00 0.00 60 1009.4
20260505114445 64 111 4.3 12.2 0.00 0.00 0.00 60 1009.4
20260505113721 64 78 3.5 12.2 0.00 0.00 0.00 61 1009.2
20260505113224 64 114 3.5 13.9 0.00 0.00 0.00 61 1009.2
20260505112942 64 91 3.5 13.9 0.00 0.00 0.00 61 1009.2
20260505112221 64 82 2.6 7.8 0.00 0.00 0.00 61 1009.2
20260505111721 63 161 2.6 10.4 0.00 0.00 0.00 61 1009.2
20260505111233 63 165 2.6 10.4 0.00 0.00 0.00 61 1009.1
20260505110721 63 145 2.6 7.8 0.00 0.00 0.00 62 1009.0
20260505110220 63 130 1.7 7.8 0.00 0.00 0.00 61 1008.9
20260505102213 62 143 1.7 8.7 0.00 0.00 0.00 61 1008.6
20260505101710 62 80 1.7 8.7 0.00 0.00 0.00 61 1008.6
20260505101211 62 92 2.6 9.6 0.00 0.00 0.00 62 1008.3
20260505100933 62 103 1.7 9.6 0.00 0.00 0.00 62 1008.3
20260505100212 62 84 2.6 7.0 0.00 0.00 0.00 62 1008.3
20260505095706 62 81 1.7 7.0 0.00 0.00 0.00 63 1008.3
20260505095207 62 52 1.7 8.7 0.00 0.00 0.00 63 1008.2
20260505094707 62 84 1.7 8.7 0.00 0.00 0.00 63 1008.2
20260505094206 62 98 2.6 8.7 0.00 0.00 0.00 63 1008.1
20260505093707 62 55 3.5 8.7 0.00 0.00 0.00 63 1008.2
20260505093205 62 77 2.6 8.7 0.00 0.00 0.00 63 1008.3
20260505092703 62 83 2.6 9.6 0.00 0.00 0.00 63 1008.2
20260505092428 62 75 2.6 9.6 0.00 0.00 0.00 62 1008.3
20260505091700 62 84 2.6 8.7 0.00 0.00 0.00 62 1008.3
20260505091419 62 91 2.6 8.7 0.00 0.00 0.00 62 1008.3
20260505090648 62 113 0.9 6.1 0.00 0.00 0.00 62 1008.3
20260505090147 62 84 0.9 5.2 0.00 0.00 0.00 62 1008.3
20260505085644 62 116 0.9 5.2 0.00 0.00 0.00 61 1008.4
20260505085144 62 82 0.9 4.3 0.00 0.00 0.00 62 1008.6
20260505084645 62 104 0.0 3.5 0.00 0.00 0.00 62 1008.7
20260505084144 62 178 0.0 4.3 0.00 0.00 0.00 61 1008.7
20260505083644 62 147 0.0 4.3 0.00 0.00 0.00 61 1008.6
20260505083145 63 193 0.0 1.7 0.00 0.00 0.00 61 1008.4
20260505082642 63 148 0.0 3.5 0.00 0.00 0.00 60 1008.1
20260505082141 63 120 0.9 7.8 0.00 0.00 0.00 59 1007.8
20260505081643 63 127 1.7 7.8 0.00 0.00 0.00 59 1007.9
20260505081141 63 76 0.9 5.2 0.00 0.00 0.00 59 1007.8
20260505080641 63 100 0.9 4.3 0.00 0.00 0.00 60 1007.8
20260505080141 63 78 0.9 7.0 0.00 0.00 0.00 60 1007.8
20260505075641 63 88 0.9 7.0 0.00 0.00 0.00 62 1007.8
20260505075140 63 109 0.9 3.5 0.00 0.00 0.00 61 1007.9
20260505074640 63 109 0.9 3.5 0.00 0.00 0.00 62 1007.9
20260505074140 63 110 0.9 5.2 0.00 0.00 0.00 62 1007.7
20260505073641 63 82 0.9 6.1 0.00 0.00 0.00 62 1007.7
20260505073141 63 127 0.9 6.1 0.00 0.00 0.00 61 1007.6
20260505072640 64 120 1.7 13.9 0.00 0.00 0.00 61 1007.7
20260505072140 63 84 3.5 13.9 0.00 0.00 0.00 61 1007.6
20260505071641 62 92 2.6 11.3 0.00 0.00 0.00 63 1007.7
20260505071140 61 132 0.9 6.1 0.00 0.00 0.00 64 1007.8
20260505070858 60 96 0.9 6.1 0.00 0.00 0.00 66 1007.8
20260505070142 59 104 0.0 3.5 0.00 0.00 0.00 67 1007.7
20260505065640 59 146 0.0 3.5 0.00 0.00 0.00 68 1007.6
20260505065142 58 111 0.0 3.5 0.00 0.00 0.00 70 1007.6
20260505064638 57 111 0.0 3.5 0.00 0.00 0.00 71 1007.6
20260505064138 56 121 0.0 5.2 0.00 0.00 0.00 73 1007.6
20260505063638 55 121 0.0 5.2 0.00 0.00 0.00 75 1007.7
20260505063136 54 80 0.0 0.0 0.00 0.00 0.00 77 1007.7
20260505062634 53 80 0.0 0.0 0.00 0.00 0.00 78 1007.7
20260505062134 53 80 0.0 0.9 0.00 0.00 0.00 78 1007.8
20260505061858 53 80 0.0 0.9 0.00 0.00 0.00 78 1007.8
20260505061135 53 80 0.0 0.0 0.00 0.00 0.00 78 1007.8
20260505060855 54 80 0.0 0.0 0.00 0.00 0.00 77 1007.8
20260505060132 54 80 0.0 0.0 0.00 0.00 0.00 77 1007.9
20260505055856 54 80 0.0 0.0 0.00 0.00 0.00 77 1007.9
20260505055130 55 80 0.0 0.0 0.00 0.00 0.00 76 1008.0
20260505054628 55 80 0.0 0.0 0.00 0.00 0.00 75 1008.0
20260505054352 56 80 0.0 0.0 0.00 0.00 0.00 75 1008.0
20260505053629 56 80 0.0 0.0 0.00 0.00 0.00 73 1008.0
20260505053128 57 80 0.0 0.0 0.00 0.00 0.00 72 1008.1
20260505052626 57 80 0.0 0.0 0.00 0.00 0.00 71 1008.1
20260505052127 58 80 0.0 0.0 0.00 0.00 0.00 70 1008.2
20260505051628 58 80 0.0 0.0 0.00 0.00 0.00 69 1008.2
20260505051126 59 80 0.0 0.0 0.00 0.00 0.00 68 1008.2
20260505050626 59 80 0.0 0.0 0.00 0.00 0.00 67 1008.2
20260505050139 60 80 0.0 0.0 0.00 0.00 0.00 66 1008.3
20260505041126 59 69 0.0 2.6 0.00 0.00 0.00 69 1008.4
20260505040627 58 69 0.0 0.0 0.00 0.00 0.00 70 1008.4
20260505040124 58 69 0.0 0.9 0.00 0.00 0.00 70 1008.4
20260505035626 58 69 0.0 0.9 0.00 0.00 0.00 69 1008.4
20260505035122 58 69 0.0 0.0 0.00 0.00 0.00 70 1008.4
20260505034622 57 69 0.0 0.0 0.00 0.00 0.00 71 1008.4
20260505034122 57 69 0.0 0.0 0.00 0.00 0.00 72 1008.6
20260505033617 57 69 0.0 0.0 0.00 0.00 0.00 72 1008.6
20260505033118 57 69 0.0 0.0 0.00 0.00 0.00 71 1008.4
20260505032617 58 69 0.0 0.0 0.00 0.00 0.00 72 1008.4
20260505032114 58 69 0.0 0.0 0.00 0.00 0.00 70 1008.4
20260505031612 58 69 0.0 0.0 0.00 0.00 0.00 69 1008.4
20260505031112 59 69 0.0 0.0 0.00 0.00 0.00 69 1008.3
20260505030611 59 69 0.0 0.0 0.00 0.00 0.00 68 1008.3
20260505030116 60 69 0.0 0.0 0.00 0.00 0.00 68 1008.3
20260505025832 60 69 0.0 0.0 0.00 0.00 0.00 67 1008.3
20260505025112 61 69 0.0 2.6 0.00 0.00 0.00 66 1008.4
20260505024612 61 69 0.0 2.6 0.00 0.00 0.00 63 1008.3
20260505024331 61 65 0.0 0.0 0.00 0.00 0.00 65 1008.3
20260505023834 61 65 0.0 2.6 0.00 0.00 0.00 64 1008.3
20260505023110 60 65 0.0 2.6 0.00 0.00 0.00 64 1008.3
20260505022608 60 59 0.0 0.0 0.00 0.00 0.00 66 1008.3
20260505022110 60 59 0.0 0.9 0.00 0.00 0.00 65 1008.4
20260505021607 61 59 0.0 3.5 0.00 0.00 0.00 64 1008.4
20260505021108 61 107 0.0 3.5 0.00 0.00 0.00 64 1008.4
20260505020608 61 47 0.0 0.9 0.00 0.00 0.00 63 1008.3
20260505020108 62 47 0.0 0.0 0.00 0.00 0.00 63 1008.4
20260505015605 62 47 0.0 0.0 0.00 0.00 0.00 62 1008.3
20260505015108 63 47 0.0 0.9 0.00 0.00 0.00 61 1008.4
20260505014605 63 47 0.0 2.6 0.00 0.00 0.00 59 1008.3
20260505014106 64 47 0.9 2.6 0.00 0.00 0.00 59 1008.2
20260505013833 64 46 0.0 2.6 0.00 0.00 0.00 57 1008.1
20260505013106 64 76 0.0 2.6 0.00 0.00 0.00 57 1008.2
20260505012605 65 76 0.0 2.6 0.00 0.00 0.00 56 1008.2
20260505012106 65 74 0.9 5.2 0.00 0.00 0.00 55 1008.2
20260505011606 65 103 1.7 5.2 0.00 0.00 0.00 54 1008.2
20260505011106 66 88 1.7 9.6 0.00 0.00 0.00 53 1008.2
20260505011045 66 85 0.9 9.6 0.00 0.00 0.00 52 1008.3
20260505010105 65 73 0.0 3.5 0.00 0.00 0.00 52 1008.3
20260505005605 66 90 0.0 0.0 0.00 0.00 0.00 52 1008.3
20260505005103 66 90 0.0 0.0 0.00 0.00 0.00 49 1008.1
20260505004601 67 90 0.9 6.1 0.00 0.00 0.00 49 1008.0
20260505004101 67 90 1.7 6.1 0.00 0.00 0.00 49 1008.0
20260505003824 67 65 0.9 5.2 0.00 0.00 0.00 48 1007.8
20260505003056 67 98 0.0 3.5 0.00 0.00 0.00 49 1007.8
20260505002552 67 87 0.9 6.1 0.00 0.00 0.00 47 1007.8
20260505002053 67 126 1.7 7.0 0.00 0.00 0.00 46 1007.7
20260505001551 67 130 0.9 7.0 0.00 0.00 0.00 47 1007.8
20260505001050 67 101 0.9 6.1 0.00 0.00 0.00 46 1007.7
20260505000552 67 85 1.7 7.0 0.00 0.00 0.00 46 1007.7
20260504235547 68 178 1.7 8.7 0.00 0.00 0.00 45 1007.6
20260504235310 68 80 1.7 7.8 0.00 0.00 0.00 44 1007.7
20260504234808 68 95 1.7 7.8 0.00 0.00 0.00 44 1007.6
20260504234045 69 78 2.6 8.7 0.00 0.00 0.00 43 1007.6
20260504233552 69 78 3.5 8.7 0.00 0.00 0.00 42 1007.5
20260504233043 69 115 2.6 8.7 0.00 0.00 0.00 42 1007.5
20260504232543 69 88 2.6 13.0 0.00 0.00 0.00 42 1007.5
20260504232041 69 80 2.6 13.0 0.00 0.00 0.00 41 1007.4
20260504231539 70 104 2.6 8.7 0.00 0.00 0.00 42 1007.3
20260504231035 70 123 3.5 10.4 0.00 0.00 0.00 40 1007.2
20260504230536 71 179 5.2 13.9 0.00 0.00 0.00 41 1007.3
20260504230035 71 97 3.5 13.9 0.00 0.00 0.00 40 1007.2
20260504225748 71 85 2.6 9.6 0.00 0.00 0.00 41 1007.1
20260504225251 71 103 1.7 8.7 0.00 0.00 0.00 42 1007.0
20260504224529 71 79 1.7 11.3 0.00 0.00 0.00 43 1007.1
20260504224027 71 173 3.5 11.3 0.00 0.00 0.00 43 1007.1
20260504223525 71 42 4.3 11.3 0.00 0.00 0.00 42 1007.1
20260504223247 71 91 4.3 11.3 0.00 0.00 0.00 42 1007.1
20260504222524 71 48 4.3 14.8 0.00 0.00 0.00 42 1007.0
20260504222025 71 109 4.3 14.8 0.00 0.00 0.00 42 1007.1
20260504221801 71 94 3.5 10.4 0.00 0.00 0.00 42 1007.1
20260504221026 71 155 3.5 13.0 0.00 0.00 0.00 42 1007.1
20260504220527 71 103 3.5 13.0 0.00 0.00 0.00 41 1007.1
20260504220254 71 157 4.3 12.2 0.00 0.00 0.00 41 1007.1
20260504215526 72 115 6.1 15.6 0.00 0.00 0.00 41 1007.0
20260504215024 72 77 4.3 15.6 0.00 0.00 0.00 40 1006.9
20260504214743 72 90 3.5 7.8 0.00 0.00 0.00 40 1007.1
20260504214504 71 119 3.5 8.7 0.00 0.00 0.00 41 1007.1
20260504213527 71 169 4.3 11.3 0.00 0.00 0.00 40 1007.0
20260504213025 72 117 4.3 12.2 0.00 0.00 0.00 38 1007.1
20260504212525 72 124 4.3 12.2 0.00 0.00 0.00 38 1007.1
20260504212018 72 186 3.5 10.4 0.00 0.00 0.00 39 1007.0
20260504211731 72 83 3.5 9.6 0.00 0.00 0.00 39 1007.0
20260504211009 71 168 3.5 10.4 0.00 0.00 0.00 40 1007.1
20260504210459 70 78 3.5 10.4 0.00 0.00 0.00 39 1007.0
20260504210218 71 79 2.6 9.6 0.00 0.00 0.00 40 1007.1
20260504205449 71 122 2.6 9.6 0.00 0.00 0.00 39 1007.1
20260504205206 72 157 3.5 9.6 0.00 0.00 0.00 39 1007.2
20260504204657 73 117 3.5 12.2 0.00 0.00 0.00 37 1007.2
20260504203937 73 98 3.5 12.2 0.00 0.00 0.00 35 1007.1
20260504203437 73 116 3.5 17.4 0.00 0.00 0.00 35 1007.2
20260504203202 73 122 4.3 17.4 0.00 0.00 0.00 36 1007.3
20260504202702 73 153 2.6 11.3 0.00 0.00 0.00 37 1007.4
20260504202155 73 96 3.5 12.2 0.00 0.00 0.00 39 1007.3
20260504201436 72 148 3.5 12.2 0.00 0.00 0.00 39 1007.4
20260504200937 71 93 3.5 10.4 0.00 0.00 0.00 38 1007.5
20260504200437 72 147 3.5 10.4 0.00 0.00 0.00 35 1007.5
20260504195935 73 223 2.6 9.6 0.00 0.00 0.00 37 1007.6
20260504195436 73 171 2.6 13.9 0.00 0.00 0.00 36 1007.7
20260504194936 73 124 3.5 13.9 0.00 0.00 0.00 35 1007.7
20260504194437 73 113 3.5 11.3 0.00 0.00 0.00 35 1007.6
20260504193935 72 111 4.3 11.3 0.00 0.00 0.00 38 1007.7
20260504193434 71 73 6.1 15.6 0.00 0.00 0.00 39 1007.7
20260504192934 72 76 6.1 15.6 0.00 0.00 0.00 36 1007.9
20260504192435 72 101 4.3 13.0 0.00 0.00 0.00 33 1008.0
20260504191935 72 122 4.3 13.0 0.00 0.00 0.00 35 1007.9
20260504191437 72 96 3.5 13.0 0.00 0.00 0.00 35 1008.2
20260504190933 72 110 2.6 9.6 0.00 0.00 0.00 36 1008.1
20260504190435 72 60 3.5 11.3 0.00 0.00 0.00 35 1008.1
20260504185935 71 171 5.2 13.9 0.00 0.00 0.00 35 1008.1
20260504185433 71 121 4.3 13.9 0.00 0.00 0.00 33 1008.2
20260504184933 72 132 2.6 10.4 0.00 0.00 0.00 31 1008.3
20260504184435 72 159 2.6 12.2 0.00 0.00 0.00 32 1008.3
20260504183936 72 223 2.6 12.2 0.00 0.00 0.00 33 1008.4
20260504183433 71 80 3.5 9.6 0.00 0.00 0.00 34 1008.4
20260504183148 71 178 4.3 12.2 0.00 0.00 0.00 34 1008.7
20260504182428 71 142 4.3 12.2 0.00 0.00 0.00 33 1008.8
20260504181931 71 161 3.5 10.4 0.00 0.00 0.00 35 1008.8
20260504181431 70 121 4.3 13.0 0.00 0.00 0.00 36 1008.8
20260504180928 70 62 7.0 17.4 0.00 0.00 0.00 36 1009.0
20260504180428 70 102 6.1 17.4 0.00 0.00 0.00 38 1008.9
20260504175928 70 55 6.1 15.6 0.00 0.00 0.00 42 1009.0
20260504175432 70 75 4.3 13.0 0.00 0.00 0.00 36 1009.0
20260504174928 70 69 4.3 14.8 0.00 0.00 0.00 38 1009.0
20260504174424 70 155 5.2 14.8 0.00 0.00 0.00 39 1009.1
20260504173925 70 54 3.5 13.9 0.00 0.00 0.00 39 1009.1
20260504173424 69 122 3.5 11.3 0.00 0.00 0.00 38 1009.1
20260504172925 69 182 5.2 13.0 0.00 0.00 0.00 40 1009.2
20260504172423 68 123 5.2 13.0 0.00 0.00 0.00 41 1009.3
20260504171923 69 87 4.3 10.4 0.00 0.00 0.00 42 1009.4
20260504171649 68 84 4.3 13.9 0.00 0.00 0.00 47 1009.6
20260504170920 68 38 5.2 13.9 0.00 0.00 0.00 40 1009.6
20260504170423 67 141 5.2 13.0 0.00 0.00 0.00 42 1009.7
20260504160412 65 58 4.3 11.3 0.00 0.00 0.00 44 1010.5
20260504150905 63 150 3.5 13.0 0.00 0.00 0.00 46 1011.1
20260504150402 62 65 5.2 13.0 0.00 0.00 0.00 46 1011.1
20260504140400 59 92 5.2 14.8 0.00 0.00 0.00 47 1011.5